Find Local Weather

World > North America > United States > New York

Bronx, New York Regional Weather

Lat: 40.85N, Lon: 73.87W
Wx Zone: NYZ073
Feedback
Expires:201811191400;;539215
ASUS41 KALY 191310
RWRALY

NEW YORK STATE HOURLY WEATHER ROUNDUP
NATIONAL WEATHER SERVICE ALBANY NY
800 AM EST MON NOV 19 2018

NOTE: "FAIR" INDICATES FEW OR NO CLOUDS BELOW 12,000 FEET WITH NO
SIGNIFICANT WEATHER AND/OR NO OBSTRUCTIONS TO VISIBILITY.


NYZ032-033-038>043-046>054-057>066-NYZ062>081-082-084-191400-
EAST

  
CITY           SKY/WX    TMP DP  RH WIND       PRES   REMARKS
ALBANY         CLOUDY    33  29  85 N5        30.15R FOG     WCI  29  
GLENS FALLS    CLOUDY    30  29  96 CALM      30.13S                  
POUGHKEEPSIE   CLOUDY    34  33  96 CALM      30.14R FOG              
NEWBURGH       CLOUDY    37  37 100 CALM      30.13R FOG              
MONTGOMERY     CLOUDY    35  33  92 CALM      30.12R FOG              
WHITE PLAINS   PTSUNNY   42  38  85 CALM      30.12S                  
ISLIP          PTSUNNY   42  42 100 SE3       30.13F                  
NEW YORK CITY  CLOUDY    48  42  80 SW7       30.14R                  
CENTRAL PARK   CLOUDY    46  40  79 MISG      30.16R                  
$$


SKY/WX - Weather  TMP - Temperature  DP - Dew Point  RH - Relative Humidity
WIND - Wind Direction/Speed PRES - Barometric Pressure